Regional Weather Roundup
Issued by NWS Portland, ME

Home | Current Version | Previous Version | Text Only | Print | Product List | Glossary On
Versions: 1 2 3 4 5 6 7 8 9 10 11 12 13 14 15 16 17 18 19 20 21 22 23 24 25 26 27 28 29 30 31 32 33 34 35 36 37 38 39 40 41 42 43 44 45 46 47 48 49 50
000
ASUS41 KGYX 250810
RWRGYX
WEATHER ROUNDUP FOR MAINE AND NEW HAMPSHIRE
NATIONAL WEATHER SERVICE GRAY ME
400 AM EDT MON JUL 25 2016

MEZ002-005-006-010-012-015-018-020-021-024-026-027-029-250900-
MAINE

CITY           SKY/WX    TMP DP  RH WIND       PRES   REMARKS
PORTLAND       MOCLDY    62  60  93 CALM      29.94F
SANFORD          N/A     56  56 100 CALM      29.95F
BAR HARBOR     CLOUDY    62  60  93 CALM      29.93F
WISCASSET      CLOUDY    59  57  93 CALM      29.95F
FRYEBURG       NOT AVBL
LEWISTONAUBURN CLOUDY    60  59  96 CALM      29.95F
AUGUSTA        CLOUDY    63  57  81 CALM      29.95S
WATERVILLE     CLOUDY    62  59  90 CALM      29.93S
BANGOR         CLOUDY    66  58  75 CALM      29.93F
GREENVILLE       N/A     61  55  81 N5        29.95F
MILLINOCKET    CLOUDY    63  58  83 NW3       29.94F
HOULTON        CLOUDY    58  58 100 CALM      29.92S
PRESQUE ISLE   MOCLDY    54  53  97 CALM      29.94S FOG
FRENCHVILLE    CLOUDY    59  55  87 SW7       29.93F
CARIBOU        PTCLDY    59  56  89 CALM      29.92F
$$

NHZ002-005-008-009-011-012-014-250900-
NEW HAMPSHIRE

CITY           SKY/WX    TMP DP  RH WIND       PRES   REMARKS
PORTSMOUTH     PTCLDY    61  58  88 W5        29.94S
ROCHESTER      CLEAR     59  56  89 NW6       29.94F
NASHUA         CLEAR     59  55  87 NW3       29.97S
MANCHESTER     MOCLDY    62  54  74 CALM      29.95S
CONCORD        CLEAR     57  53  86 CALM      29.96F
LACONIA        MOCLDY    59  57  93 CALM      29.97F
PLYMOUTH       FAIR      54  53  97 CALM      29.98F
BERLIN         FOG       55  52  89 CALM      29.99F VSB 1/4
WHITEFIELD     CLOUDY    55  52  89 CALM      29.98F
JAFFREY        CLEAR     57  54  89 CALM      29.99F
KEENE          CLEAR     56  54  93 N3        29.99F
LEBANON        CLOUDY    58  55  90 CALM      29.97F
MT WASHINGTON  MOCLDY    52  37  58 W15         N/A
$$

VTZ005-007-008-250900-
VERMONT

CITY           SKY/WX    TMP DP  RH WIND       PRES   REMARKS
ST JOHNSBURY     N/A     60  56  86 MISG      29.96F
MONTPELIER     FAIR      58  55  90 CALM      30.01F
BURLINGTON     FAIR      63  55  75 CALM      29.93F
$$

MAZ007-012-024-CTZ003-RIZ002-NYZ038-NYZ072-250900-
SOUTHERN NEW ENGLAND AND NY

CITY           SKY/WX    TMP DP  RH WIND       PRES   REMARKS
BOSTON         PTCLDY    71  64  78 CALM      29.94F
WORCESTER      CLOUDY    72  49  44 CALM      29.98F
NANTUCKET      CLEAR     68  67  96 SW7       29.97R
PROVIDENCE     CLOUDY    70  65  84 CALM      29.95F
HARTFORD       PTCLDY    67  60  78 CALM      29.94S
ALBANY         CLOUDY    68  64  87 CALM      29.93F
NEW YORK CITY  CLOUDY    83  64  52 S7        29.93S
$$

ANZ081-ANZ082-ANZ150-NHZ014-MEZ023>029-250900-
COASTAL MARINE OBSERVATIONS

STATION/POSITION TIME  TEMP    WIND        PRES    WAVE
                       AIR SEA DIR/SP/G            HT/PER
                 (UTC) (F)     (DEG/KT/KT) (MB)    (FT/S)
MOUNT DESERT ROC 0800   60     250/ 12/ 12 1013.4F
MATINICUS ROCK   0800   63     290/  8/  8 1013.1F
ISLE OF SHOALS   0700   67     280/  5/  5 1013.8S
JEFFREYS LEDGE   0708      68                N/A     1/ 7
CASHES LEDGE BUO 0750   70 69  250/  4/  4 1013.7F   2/ 7
GEORGES BANK BUO 0750   62 63              1014.8R   3/ 6
$$

.............KEY..............
   WCI - WIND CHILL
   TC  - TEMPERATURE IN CELSIUS
   VSB - VISIBILITY IN MILES
   HX  - HEAT INDEX
   FAIR- INDICATES FEW OR NO CLOUDS BELOW 12,000 FT, WITH NO
         SIGNIFICANT WEATHER AND/OR OBSTRUCTIONS TO VISIBILITY.





USA.gov is the U.S. government's official web portal to all federal, state and local government web resources and services.